This is the latest recevied weather packets stored in our database for station/object N2XP. If no packets are shown the sender has not sent any weather packets the latest 10 day(s).
| Time | Temp. | Humidity | Pressure | Rain* | Wind** | Luminosity | Snow |
|---|---|---|---|---|---|---|---|
| 1777843883 | 14.44° C | 35% | 1008.6 hPa | 0 mm | - | - | - |
| 1777842979 | 14.44° C | 36% | 1008.7 hPa | 0 mm | - | - | - |
| 1777842053 | 15° C | 33% | 1008.7 hPa | 0 mm | - | - | - |
| 1777841163 | 14.44° C | 32% | 1008.7 hPa | 0 mm | - | - | - |
| 1777840250 | 14.44° C | 32% | 1008.9 hPa | 0 mm | - | - | - |
| 1777839349 | 13.89° C | 35% | 1009 hPa | 0 mm | - | - | - |
| 1777838448 | 14.44° C | 37% | 1009.2 hPa | 0 mm | - | - | - |
| 1777837544 | 13.89° C | 36% | 1009.2 hPa | 0 mm | - | - | - |
| 1777836645 | 13.33° C | 34% | 1009.4 hPa | 0 mm | - | - | - |
| 1777835757 | 13.89° C | 35% | 1009.3 hPa | 0 mm | - | - | - |
| 1777834846 | 13.89° C | 35% | 1009.3 hPa | 0 mm | - | - | - |
| 1777833946 | 13.33° C | 35% | 1009.4 hPa | 0 mm | - | - | - |
| 1777833044 | 13.33° C | 37% | 1009.7 hPa | 0 mm | - | - | - |
| 1777832137 | 12.78° C | 38% | 1009.7 hPa | 0 mm | - | - | - |
| 1777831236 | 12.78° C | 42% | 1009.8 hPa | 0 mm | - | - | - |
| 1777830341 | 12.22° C | 39% | 1010 hPa | 0 mm | - | - | - |
| 1777829431 | 12.22° C | 43% | 1010.1 hPa | 0 mm | - | - | - |
| 1777828533 | 11.11° C | 43% | 1010.2 hPa | 0 mm | - | - | - |
| 1777827625 | 10.56° C | 47% | 1010.5 hPa | 0 mm | - | - | - |
| 1777826735 | 10° C | 50% | 1010.7 hPa | 0 mm | - | - | - |
| 1777825827 | 10° C | 46% | 1010.7 hPa | 0 mm | - | - | - |
| 1777824924 | 10° C | 47% | 1010.8 hPa | 0 mm | - | - | - |
| 1777824021 | 10° C | 49% | 1010.8 hPa | 0 mm | - | - | - |
| 1777823117 | 9.44° C | 50% | 1010.9 hPa | 0 mm | - | - | - |
| 1777822218 | 8.89° C | 50% | 1011 hPa | 0 mm | - | - | - |
* Rain latest hour (hover to see other rain measurements)
** Current wind speed in m/s (hover to see current wind gust speed)